Location: Unspecified
(0.0000°N, 0.0000°E)
Time: 02:32:54
(UTC+00:00)

Daily predictions for brighter satellites

Satellite Brightness Start Highest point End
(mag) Time Altitude Azimuth Time Altitude Azimuth Time Altitude Azimuth
ARIANE 5 R/B 4.3 03:18:35 24° ESE 03:18:35 24° ESE 03:22:50 10° ESE
Ariane 3 Deb 4.1 03:43:36 87° NW 03:43:43 87° N 03:48:30 10° E
Cosmos 1844 Rocket 4.1 03:53:41 10° N 03:58:42 35° ENE 04:03:44 10° SE
Cosmos 540 Rocket 4.0 04:01:44 54° E 04:01:44 54° E 04:06:29 10° NNE
Lacrosse 4 Rocket 3.9 04:09:32 14° SSE 04:09:32 14° SSE 04:10:12 10° SSE
ATLAS 2AS CENTAUR R/B 3.2 04:13:13 14° S 04:19:06 62° ESE 04:26:26 10° NNE
Cosmos 304 Rocket 4.2 04:17:50 30° S 04:20:02 59° ESE 04:24:43 10° NNE
ARIANE 5 R/B 2.5 04:22:48 33° NNE 04:22:48 33° NNE 04:24:16 10° ENE
Delta 202 3.7 04:31:27 47° SW 04:32:58 69° SSE 04:38:12 10° ENE
Cosmos 1603 3.7 04:29:39 10° SSW 04:35:14 80° ESE 04:40:51 10° NNE
NOSS 2-3 (E) 3.6 04:38:46 38° SW 04:40:33 76° WNW 04:45:07 10° NNE
ARIANE 5 R/B 2.4 04:45:19 40° N 04:45:19 40° N 04:47:06 10° ENE
Cosmos 2341 Rocket 4.2 04:40:44 10° NNW 04:46:34 45° W 04:52:28 10° SSW
Cosmos 2218 Rocket 4.2 04:40:36 10° N 04:46:50 75° E 04:53:03 10° S
Intelsat 5-3 Rocket 2.7 04:47:50 29° NNE 04:47:50 29° NNE 04:49:43 10° NE
ASTRO E2 3.7 04:45:59 23° NNW 04:47:59 42° NNE 04:51:48 10° ESE
Meteor 2-19 Rocket 4.4 04:42:20 10° NNW 04:48:12 56° W 04:54:07 10° S
Cosmos 1726 Rocket 4.3 04:43:53 10° N 04:48:14 55° E 04:52:35 10° SSE
NOAA 6 3.9 04:45:43 10° N 04:50:47 67° WNW 04:55:53 10° SSW
Cosmos 2298 Rocket 4.1 04:50:22 10° N 04:55:41 84° ENE 05:01:00 10° SSE
Cosmos 1066 Rocket 4.2 04:51:59 10° SSW 04:57:46 71° W 05:03:25 10° N
Atlas Centaur 2 3.1 04:57:26 18° NW 04:57:53 18° NW 05:00:42 10° N
Cosmos 1626 Rocket 3.4 04:53:38 10° S 04:58:04 81° W 05:02:30 10° N
Atlas 2A Centaur Rocket 0.3 05:00:04 66° NW 05:00:16 80° NNE 05:02:21 10° ESE
PSLV R/B 4.4 05:01:10 26° SW 05:01:10 26° SW 05:03:56 10° SSE
Uosat 12 SS-18 rocket 4.3 04:59:02 23° SW 05:01:25 44° WNW 05:05:27 10° N
Cosmos 1538 Rocket 4.4 04:59:50 10° S 05:05:11 68° ESE 05:10:28 10° NNE
Cosmos 1602 Rocket 3.5 05:02:24 10° SSW 05:06:44 63° W 05:11:05 10° N
Meteor 2-8 Rocket 4.4 05:03:38 10° S 05:09:43 87° E 05:15:45 10° N
Meteor 1-15 Rocket 4.3 05:04:49 10° NNW 05:10:37 64° W 05:16:23 10° S
Cosmos 1959 Rocket 4.5 05:05:39 10° NNW 05:11:42 61° W 05:17:51 10° S
NOSS 2-3 (C) 4.5 05:09:12 18° WSW 05:11:49 30° WNW 05:15:52 10° N
ARIANE 5 DEB (SYLDA) 4.1 05:12:55 18° NW 05:14:13 30° N 05:16:28 10° ENE
Cosmos 990 Rocket 4.0 05:11:42 10° NNW 05:16:50 87° ENE 05:21:58 10° SSE
Cosmos 1842 4.2 05:14:24 10° S 05:18:16 52° E 05:22:07 10° NNE
Cosmos 1844 4.0 05:14:13 10° NW 05:19:28 41° WSW 05:24:41 10° S
ARIANE 5 R/B 2.6 05:18:10 18° W 05:20:04 81° N 05:29:33 10° E
ARIANE 5 R/B 1.8 05:19:14 18° WSW 05:20:25 37° S 05:23:44 10° ESE
CZ-3A R/B 3.6 05:16:23 16° W 05:20:46 53° NNW 05:54:06 10° ENE
Thor Agena Rocket 3.9 05:16:09 10° SSE 05:21:14 69° ENE 05:26:15 10° N
Okean-O 4.4 05:19:30 10° NW 05:20:59 12° WNW 05:20:59 12° WNW
GPS 2-12 Rocket1 4.3 05:19:48 14° WSW 05:22:39 26° SSW 05:26:24 10° SE
CSL-04 Rocket 3.9 05:18:16 10° NNE 05:23:47 79° ESE 05:29:17 10° S
CZ-2C R/B 3.6 05:21:00 10° NNE 05:25:50 48° ESE 05:30:33 10° S
Cosmos 773 Rocket 4.3 05:21:01 10° S 05:26:18 75° ESE 05:31:34 10° NNE
IDEFIX/ARIANE 42P 3.4 05:21:30 10° NNE 05:26:33 55° ESE 05:31:39 10° S
Cosmos 292 Rocket 4.3 05:22:10 10° S 05:26:54 64° ESE 05:31:39 10° NNE
CZ-3 R/B 2.7 05:11:42 10° SW 05:27:28 48° SSE 05:32:02 10° E
Cosmos 2366 rocket 4.3 05:23:27 10° NNW 05:29:28 47° W 05:35:29 10° SSW
Cosmos 1867 3.5 05:25:55 10° NNW 05:31:19 83° WSW 05:36:42 10° SSE
Cosmos 1898 Rocket 4.4 05:31:54 10° NW 05:36:07 26° WSW 05:40:22 10° SSW
SJ-12 4.2 05:37:54 10° NNE 05:42:01 75° ESE 05:46:08 10° S
Cosmos 1844 Rocket 4.1 05:39:15 10° WNW 05:42:19 15° WSW 05:45:23 10° SW
Ariane Rocket 3.2 05:37:49 10° N 05:42:42 51° WNW 05:47:36 10° SSW
Cosmos 2058 Rocket 3.7 05:39:07 10° NNW 05:43:04 33° W 05:47:02 10° SSW
Cosmos 1758 Rocket 4.2 05:40:51 10° S 05:45:18 64° E 05:49:44 10° NNE
ATLAS CENTAUR R/B 2.5 05:42:29 10° SW 05:46:46 31° WNW 05:50:55 10° N
